Theta_e
310 310 310 309 310 310 309 309 309 308 308 308 308 308 308 308 307 307 306 306 304 303 301 300 299 298 298 297 296 296 295 295 295 295 296 296 296 296 296 296 296 296
310 310 310 310 310 310 309 309 309 309 308 308 308 308 308 307 307 307 306 306 305 305 303 302 300 299 298 297 296 296 295 295 295 295 295 295 296 296 296 296 296 296
310 309 309 310 309 309 309 309 308 308 308 308 308 308 308 307 307 307 306 306 305 305 304 303 302 300 299 298 297 296 295 295 295 295 295 295 295 295 296 296 296 296
310 309 309 309 308 308 308 308 308 308 308 308 308 308 307 307 307 306 306 305 305 305 304 304 303 302 300 299 298 296 296 295 295 294 294 294 295 295 295 295 295 296
309 309 309 308 308 307 307 307 307 307 307 307 307 307 307 306 307 306 306 305 305 304 304 303 303 302 301 300 299 297 296 295 294 294 294 294 294 294 295 295 295 295
309 309 309 309 308 308 307 307 307 307 307 307 306 306 306 306 306 306 306 306 305 304 304 303 303 302 301 300 299 298 297 296 295 294 294 294 294 294 294 294 295 295
309 309 309 308 308 308 308 308 308 308 308 308 307 307 306 306 306 306 306 305 305 304 304 303 303 302 301 300 299 298 297 296 295 294 293 293 293 293 294 294 294 294
308 308 307 307 307 307 308 308 308 309 309 309 309 308 308 307 306 305 305 304 304 304 304 303 303 302 301 301 300 299 298 297 296 295 293 293 293 293 293 293 294 294
306 306 306 305 306 307 307 308 308 308 308 308 308 308 307 307 307 306 304 303 302 303 303 303 303 302 302 301 300 299 299 298 297 295 294 293 293 293 293 293 293 293
307 306 306 305 305 306 307 307 308 307 307 307 307 307 306 306 306 305 304 303 302 302 302 302 303 303 302 302 301 300 299 298 297 296 294 294 293 293 293 293 293 293
306 306 306 306 306 306 307 307 307 307 306 306 306 306 306 306 305 304 304 304 304 304 303 302 301 302 302 302 301 300 299 298 297 297 296 294 293 293 293 293 293 293
304 304 305 306 306 307 307 307 306 306 306 306 306 306 305 305 305 304 303 304 304 304 304 302 301 300 301 301 301 300 299 298 297 297 296 295 294 293 292 292 292 293
304 304 304 305 305 305 306 306 305 305 305 305 305 305 305 305 304 304 303 304 303 303 303 302 301 300 300 300 300 300 299 299 298 297 296 295 294 293 292 292 292 292
305 305 304 304 304 304 304 305 305 305 304 304 304 304 304 304 304 303 302 302 302 302 301 300 300 299 299 299 299 299 299 299 298 297 296 295 294 293 292 292 292 292
305 305 304 304 304 303 303 304 304 304 304 303 303 303 303 303 302 301 300 300 300 300 300 299 299 299 299 298 299 299 299 298 298 297 296 295 294 293 292 291 291 291
303 304 304 303 302 302 302 302 302 303 303 303 303 302 302 301 300 300 300 300 299 299 299 299 298 298 298 298 298 298 298 298 297 297 296 295 294 293 292 291 291 291
300 300 301 301 300 300 300 300 301 301 302 302 302 302 301 300 299 299 299 299 299 299 298 298 298 298 298 297 297 297 297 297 297 297 296 295 294 293 292 291 290 290
299 298 298 298 298 298 298 298 299 299 300 300 301 301 301 300 299 298 298 298 298 298 298 298 298 297 297 297 296 296 296 296 296 296 295 295 294 293 292 291 290 290
299 299 298 298 297 296 296 296 296 297 298 299 299 299 299 299 298 298 298 297 297 298 298 298 297 297 296 296 295 295 295 295 295 295 295 294 293 293 292 291 290 289
298 298 298 299 298 297 296 295 295 296 296 297 297 297 297 297 297 297 297 297 297 297 297 297 296 296 296 295 294 294 295 294 294 294 294 293 292 292 292 291 290 289
296 296 296 297 298 299 297 295 294 294 295 295 295 296 296 296 296 296 296 296 296 296 296 296 296 295 295 294 294 294 294 294 293 293 293 292 291 291 291 291 290 289
294 294 295 295 296 298 298 297 295 293 293 293 293 294 294 294 294 295 294 295 295 295 295 295 295 294 294 293 293 293 293 292 292 292 291 291 290 290 290 289 289 288
292 293 294 294 295 296 297 298 296 294 293 292 292 292 293 293 293 294 294 294 293 293 293 293 293 293 293 292 292 292 292 291 291 291 290 289 289 289 289 289 288 287
291 292 293 294 294 295 296 297 297 296 294 292 291 291 291 292 292 292 292 292 292 292 292 292 292 292 292 292 291 291 291 291 290 290 289 289 288 288 288 288 287 287
290 291 292 292 293 294 295 296 296 297 296 294 292 291 290 290 291 291 291 291 291 291 291 291 291 291 291 290 290 290 290 290 289 289 289 288 287 287 287 286 286 286
288 289 290 291 292 293 294 294 295 296 296 296 294 293 291 290 290 290 290 290 290 290 290 290 290 290 290 289 289 289 289 289 289 289 288 288 287 287 287 286 286 286
Wind_Speed
38 39 40 40 41 41 41 42 42 43 44 44 45 45 45 46 46 47 47 47 49 50 50 51 52 52 51 50 49 48 47 46 44 43 42 41 39 37 36 34 33 32
37 38 39 40 40 40 41 42 42 42 43 43 43 43 44 44 45 46 46 45 46 46 48 50 51 51 51 51 50 50 49 48 46 45 44 42 41 39 37 36 34 33
37 39 40 40 41 41 42 43 43 43 42 43 43 43 44 44 45 45 45 45 44 45 46 47 49 50 51 51 51 51 50 49 48 47 45 44 42 41 39 38 36 35
37 39 41 42 43 43 44 44 44 44 44 44 45 45 45 46 46 46 45 45 45 44 45 46 47 48 50 51 52 52 52 51 49 48 47 46 44 43 41 40 38 36
38 39 40 41 43 44 45 45 45 46 46 47 47 47 48 48 47 47 47 46 46 45 45 46 46 47 49 50 51 52 52 52 51 50 49 48 46 45 43 42 40 38
38 39 39 40 41 42 44 45 45 46 46 47 48 49 49 49 49 49 49 48 47 46 46 46 47 47 48 49 51 52 52 52 52 52 51 50 48 46 45 43 42 41
36 38 39 40 41 41 42 43 43 43 44 45 47 49 50 51 51 51 51 50 49 48 48 47 47 47 47 49 50 51 52 53 53 53 53 51 49 48 47 45 44 42
38 39 41 42 42 42 41 41 41 41 42 45 46 48 50 51 52 53 53 52 52 51 49 48 47 46 46 47 49 50 51 53 54 54 54 53 51 50 49 47 46 43
40 42 42 43 43 42 40 39 39 41 44 46 47 49 51 52 53 55 55 54 53 53 51 50 48 47 46 47 48 50 51 52 54 55 55 54 53 52 50 49 47 45
37 39 41 42 43 43 40 38 39 42 45 47 49 51 52 53 54 55 56 55 54 54 54 53 51 49 47 47 48 49 50 51 52 54 55 55 54 53 51 50 48 47
32 35 37 39 40 41 40 40 41 44 46 48 49 50 52 53 55 56 57 56 56 56 56 56 54 51 49 48 48 49 50 51 51 52 53 54 54 53 52 51 50 48
29 32 35 36 37 39 40 42 45 47 48 49 50 50 51 53 55 57 57 57 57 57 57 57 56 53 51 50 49 48 49 50 51 51 52 53 54 54 53 52 50 49
27 28 31 33 36 38 40 43 46 49 50 51 51 51 51 52 55 56 56 57 57 57 57 57 56 55 53 51 50 49 48 49 50 51 52 53 54 54 54 53 51 50
27 25 26 27 30 33 36 40 43 47 50 51 51 51 51 52 54 55 55 56 57 57 57 56 56 56 55 53 51 49 49 49 50 52 53 54 54 54 54 54 52 51
28 27 26 26 26 29 32 35 38 42 46 49 51 52 52 52 53 53 54 56 56 56 56 56 56 57 56 55 52 51 50 51 51 53 53 54 54 55 55 55 54 51
28 28 27 26 25 27 29 31 35 38 41 45 48 50 51 52 52 53 54 55 55 55 55 56 56 57 56 55 53 51 51 51 52 53 53 54 54 55 56 56 55 52
26 26 26 25 24 24 26 28 31 34 38 41 44 47 50 51 52 53 54 54 54 54 54 55 56 56 56 55 53 52 51 51 52 53 53 54 55 56 57 57 56 54
27 25 24 24 23 22 23 25 28 32 35 37 40 43 46 49 51 52 53 53 53 53 54 55 55 55 55 54 54 52 51 51 52 52 54 55 56 57 57 57 56 54
32 30 28 26 23 22 23 24 27 29 31 33 36 39 43 47 49 50 51 52 52 52 53 53 54 54 54 53 53 52 51 51 52 53 54 55 56 57 56 56 56 54
35 34 34 32 28 26 24 24 25 26 28 30 33 37 41 45 47 49 50 51 51 51 52 52 52 53 53 52 52 51 51 52 52 54 55 55 56 56 55 54 54 54
37 37 37 37 34 32 29 27 26 25 27 29 31 35 39 42 45 47 48 49 50 50 50 50 51 51 51 51 51 50 50 51 53 54 55 56 56 55 53 53 53 53
38 38 38 38 38 36 34 31 29 27 26 28 30 33 36 39 42 45 46 47 47 48 49 49 49 49 50 50 50 49 50 51 53 54 55 56 55 54 52 51 52 52
37 37 37 37 37 37 36 34 32 29 27 26 28 31 33 36 39 41 43 45 46 47 48 48 48 48 48 49 49 49 49 51 53 54 55 55 55 53 52 50 50 50
35 35 36 36 35 35 35 34 33 31 29 27 27 29 30 33 35 38 40 43 44 45 45 46 46 47 47 47 48 48 49 51 52 53 54 54 53 52 51 50 49 48
34 33 34 34 34 34 34 33 33 32 31 29 27 27 28 30 33 35 38 40 41 43 43 44 45 45 45 46 46 46 48 50 51 52 52 53 53 52 51 49 48 47
33 33 33 32 33 34 34 34 33 32 31 30 29 28 27 28 31 33 36 38 39 40 42 42 44 44 44 44 44 45 47 49 51 51 52 52 52 52 51 49 49 47
Wind_Direction
242 241 240 241 241 242 243 243 244 244 244 244 243 243 243 243 244 244 243 242 242 241 241 241 241 241 241 240 239 239 240 240 240 241 241 241 241 241 242 242 243 246
243 242 242 241 241 241 241 242 244 244 245 245 246 246 247 247 247 247 246 245 244 244 243 242 242 242 241 241 240 240 240 240 239 239 240 240 240 240 241 242 243 246
246 244 243 243 243 242 242 242 243 244 245 246 246 247 247 247 248 248 248 247 246 245 243 243 242 242 242 241 241 241 240 240 240 240 239 239 240 240 240 241 242 244
252 249 247 246 246 245 245 245 245 245 245 245 246 246 246 247 248 248 248 247 246 245 244 243 242 242 242 241 241 240 240 240 240 240 239 239 239 238 238 239 240 241
258 256 254 252 250 248 248 248 248 248 248 248 248 247 248 248 248 248 248 247 246 245 244 243 242 241 241 240 240 240 239 239 239 238 238 237 237 237 237 237 238 239
262 261 259 257 255 253 252 252 252 253 253 253 253 252 252 251 251 250 249 248 247 245 244 243 242 241 240 239 239 239 239 239 238 238 237 237 236 236 236 237 237 238
268 266 263 261 259 258 257 257 257 259 260 259 258 257 256 255 255 254 252 251 249 247 245 244 243 242 240 240 239 239 239 238 238 237 237 236 235 235 235 235 236 237
271 269 266 264 262 261 261 261 262 263 262 261 261 261 260 258 258 257 255 253 252 250 248 246 245 243 242 241 239 239 238 238 238 237 236 235 234 235 235 234 234 235
274 271 269 267 266 265 265 265 267 266 264 263 262 261 259 259 258 257 256 255 254 253 251 248 246 244 242 241 240 239 238 238 238 237 236 235 235 235 235 234 234 234
284 278 274 271 270 269 269 270 272 270 268 266 264 262 260 259 258 258 257 256 255 254 253 251 248 245 243 241 240 239 238 238 238 238 237 237 237 237 235 234 234 234
294 287 281 278 277 276 275 275 274 272 272 270 267 265 264 262 260 258 256 256 256 256 255 253 250 247 245 242 239 239 238 238 238 239 239 238 238 237 236 235 235 235
299 293 289 286 284 283 281 279 275 273 273 273 272 269 267 265 262 260 258 257 257 256 255 254 252 249 247 244 240 238 238 238 238 238 239 238 238 237 236 235 235 235
301 298 293 289 285 284 284 281 278 275 273 273 273 271 268 266 264 262 260 259 257 256 255 254 252 250 248 245 242 239 237 237 237 237 237 237 237 236 235 235 235 235
304 298 293 288 284 282 281 279 278 277 275 273 271 270 269 267 266 263 261 258 256 255 255 253 251 250 248 245 243 240 237 236 237 236 236 236 235 235 234 234 234 234
306 298 293 289 285 281 279 278 277 277 276 274 272 271 270 268 265 262 259 257 255 254 253 252 251 250 248 246 243 241 237 236 236 236 236 236 235 234 233 233 233 232
311 302 295 291 288 286 283 280 279 277 275 274 273 272 270 267 264 261 258 256 254 253 252 252 251 251 250 248 245 243 240 237 236 236 236 235 235 234 232 232 231 231
325 313 304 297 295 293 289 285 282 278 275 273 272 272 270 268 264 260 258 255 254 253 253 253 253 252 251 249 246 243 241 239 238 237 237 235 234 234 233 232 230 229
349 338 326 317 310 304 298 292 286 280 276 274 273 272 270 268 264 260 258 255 254 254 253 253 254 253 252 250 246 243 242 241 239 239 238 237 235 234 233 232 230 228
359 357 353 345 333 321 310 300 291 285 282 279 277 274 270 267 264 261 258 256 254 253 253 253 254 253 252 250 247 245 243 241 240 240 240 238 237 235 233 232 230 228
350 353 355 355 352 343 330 317 306 298 292 286 281 275 270 267 264 261 259 257 255 254 254 254 254 254 252 250 247 245 244 242 240 240 241 240 238 237 235 233 230 228
342 344 346 349 352 352 348 338 326 313 303 293 284 277 272 268 265 262 260 258 256 255 254 254 254 253 251 249 247 245 244 242 240 240 240 239 238 237 236 234 231 229
342 341 340 342 345 348 350 349 340 328 315 302 289 281 274 269 266 263 261 260 257 255 254 253 253 252 250 248 246 244 243 242 240 239 239 238 237 236 235 233 231 229
340 339 338 338 339 340 344 346 343 336 326 311 297 287 279 274 271 268 265 262 259 257 255 254 253 252 250 247 245 243 242 241 239 238 238 237 237 235 234 232 230 228
335 334 334 333 334 335 337 339 340 338 333 323 309 298 290 283 277 273 269 265 261 259 258 256 255 253 250 247 245 243 242 241 239 238 237 237 235 234 233 231 228 226
331 329 328 328 328 329 330 331 334 335 334 329 321 310 301 292 283 277 272 269 265 263 260 257 255 253 249 247 245 243 242 240 239 238 237 236 234 232 230 227 225 225
328 326 324 323 323 323 324 326 327 329 330 330 326 319 310 299 290 283 278 274 270 266 262 258 256 253 250 247 245 243 242 241 239 238 236 235 233 231 229 226 224 223